Tracking 28790 objects as of 19-Apr-2024
HD Live streaming from Space Station
objects crossing your sky now

CZ-6A DEB

Track CZ-6A DEB now!
10-day predictions


NORAD ID: 54529
Int'l Code: 2022-151KH
Perigee: 836.5 km
Apogee: 903.7 km
Inclination: 98.8 °
Period: 102.2 minutes
Semi major axis: 7241 km
RCS: Unknown
Launch date: November 11, 2022
Source: People's Republic of China (PRC)
Launch site: Taiyaun Space Center, China (TSC)

Note: This is SATELLITE DEBRIS
Your satellite tracking list
Your tracking list is empty




NASA's NSSDC Master Catalog

Two Line Element Set (TLE):
1 54529U 22151KH  24109.92110013  .00000494  00000-0  30754-3 0  9998
2 54529  98.8107 112.8681 0046387  37.6972 322.7433 14.08946119 73512
Source of the keplerian elements: AFSPC